Year,Month,Day,Hour,Minute,Value (Times are PST for temperature in C)
2008,05,17,00,00,15.20
2008,05,17,00,01,15.20
2008,05,17,00,02,15.20
2008,05,17,00,03,15.20
2008,05,17,00,04,15.20
2008,05,17,00,05,15.20
2008,05,17,00,06,15.20
2008,05,17,00,07,15.20
2008,05,17,00,08,15.30
2008,05,17,00,09,15.30
2008,05,17,00,10,15.30
2008,05,17,00,11,15.30
2008,05,17,00,12,15.30
2008,05,17,00,13,15.30
2008,05,17,00,14,15.30
2008,05,17,00,15,15.30
2008,05,17,00,16,15.30
2008,05,17,00,17,15.30
2008,05,17,00,18,15.30
2008,05,17,00,19,15.30
2008,05,17,00,20,15.20
2008,05,17,00,21,15.20
2008,05,17,00,22,15.20
2008,05,17,00,23,15.20
2008,05,17,00,24,15.10
2008,05,17,00,25,15.10
2008,05,17,00,26,15.10
2008,05,17,00,27,15.10
2008,05,17,00,28,15.10
2008,05,17,00,29,15.10
2008,05,17,00,30,15.10
2008,05,17,00,31,15.10
2008,05,17,00,32,15.10
2008,05,17,00,33,15.10
2008,05,17,00,34,15.10
2008,05,17,00,35,15.10
2008,05,17,00,36,15.10
2008,05,17,00,37,15.00
2008,05,17,00,38,15.00
2008,05,17,00,39,15.00
2008,05,17,00,40,14.90
2008,05,17,00,41,14.90
2008,05,17,00,42,14.90
2008,05,17,00,43,14.80
2008,05,17,00,44,14.80
2008,05,17,00,45,14.80
2008,05,17,00,46,14.80
2008,05,17,00,47,14.80
2008,05,17,00,48,14.80
2008,05,17,00,49,14.80
2008,05,17,00,50,14.80
2008,05,17,00,51,14.80
2008,05,17,00,52,14.80
2008,05,17,00,53,14.80
2008,05,17,00,54,14.80
2008,05,17,00,55,14.80
2008,05,17,00,56,14.80
2008,05,17,00,57,14.80
2008,05,17,00,58,14.80
2008,05,17,00,59,14.80
2008,05,17,01,00,14.80
2008,05,17,01,01,14.80
2008,05,17,01,02,14.80
2008,05,17,01,03,14.80
2008,05,17,01,04,14.70
2008,05,17,01,05,14.70
2008,05,17,01,06,14.70
2008,05,17,01,07,14.70
2008,05,17,01,08,14.70
2008,05,17,01,09,14.70
2008,05,17,01,10,14.70
2008,05,17,01,11,14.70
2008,05,17,01,12,14.70
2008,05,17,01,13,14.80
2008,05,17,01,14,14.80
2008,05,17,01,15,14.80
2008,05,17,01,16,14.80
2008,05,17,01,17,14.90
2008,05,17,01,18,15.00
2008,05,17,01,19,15.00
2008,05,17,01,20,15.00
2008,05,17,01,21,15.10
2008,05,17,01,22,15.10
2008,05,17,01,23,15.10
2008,05,17,01,24,15.20
2008,05,17,01,25,15.20
2008,05,17,01,26,15.20
2008,05,17,01,27,15.20
2008,05,17,01,28,15.20
2008,05,17,01,29,15.20
2008,05,17,01,30,15.20
2008,05,17,01,31,15.20
2008,05,17,01,32,15.20
2008,05,17,01,33,15.20
2008,05,17,01,34,15.20
2008,05,17,01,35,15.10
2008,05,17,01,36,15.10
2008,05,17,01,37,15.10
2008,05,17,01,38,15.00
2008,05,17,01,39,15.00
2008,05,17,01,40,15.00
2008,05,17,01,41,14.90
2008,05,17,01,42,14.90
2008,05,17,01,43,14.90
2008,05,17,01,44,14.90
2008,05,17,01,45,14.90
2008,05,17,01,46,14.90
2008,05,17,01,47,14.90
2008,05,17,01,48,14.90
2008,05,17,01,49,15.10
2008,05,17,01,50,15.10
2008,05,17,01,51,15.10
2008,05,17,01,52,15.10
2008,05,17,01,53,15.10
2008,05,17,01,54,15.20
2008,05,17,01,55,15.20
2008,05,17,01,56,15.20
2008,05,17,01,57,15.20
2008,05,17,01,58,15.20
2008,05,17,01,59,15.20
2008,05,17,02,00,15.20
2008,05,17,02,01,15.20
2008,05,17,02,02,15.20
2008,05,17,02,03,15.20
2008,05,17,02,04,15.20
2008,05,17,02,05,15.20
2008,05,17,02,06,15.20
2008,05,17,02,07,15.20
2008,05,17,02,08,15.30
2008,05,17,02,09,15.30
2008,05,17,02,10,15.30
2008,05,17,02,11,15.30
2008,05,17,02,12,15.30
2008,05,17,02,13,15.30
2008,05,17,02,14,15.30
2008,05,17,02,15,15.30
2008,05,17,02,16,15.30
2008,05,17,02,17,15.30
2008,05,17,02,18,15.30
2008,05,17,02,19,15.40
2008,05,17,02,20,15.40
2008,05,17,02,21,15.40
2008,05,17,02,22,15.40
2008,05,17,02,23,15.40
2008,05,17,02,24,15.40
2008,05,17,02,25,15.40
2008,05,17,02,26,15.40
2008,05,17,02,27,15.30
2008,05,17,02,28,15.30
2008,05,17,02,29,15.30
2008,05,17,02,30,15.30
2008,05,17,02,31,15.30
2008,05,17,02,32,15.30
2008,05,17,02,33,15.30
2008,05,17,02,34,15.30
2008,05,17,02,35,15.20
2008,05,17,02,36,15.20
2008,05,17,02,37,15.20
2008,05,17,02,38,15.20
2008,05,17,02,39,15.20
2008,05,17,02,40,15.10
2008,05,17,02,41,15.10
2008,05,17,02,42,15.10
2008,05,17,02,43,15.10
2008,05,17,02,44,15.10
2008,05,17,02,45,15.10
2008,05,17,02,46,15.00
2008,05,17,02,47,15.00
2008,05,17,02,48,15.00
2008,05,17,02,49,15.00
2008,05,17,02,50,15.00
2008,05,17,02,51,14.90
2008,05,17,02,52,14.90
2008,05,17,02,53,14.90
2008,05,17,02,54,14.90
2008,05,17,02,55,14.80
2008,05,17,02,56,14.80
2008,05,17,02,57,14.80
2008,05,17,02,58,14.80
2008,05,17,02,59,14.80
2008,05,17,03,00,14.80
2008,05,17,03,01,14.80
2008,05,17,03,02,14.80
2008,05,17,03,03,14.80
2008,05,17,03,04,14.80
2008,05,17,03,05,14.80
2008,05,17,03,06,14.80
2008,05,17,03,07,14.80
2008,05,17,03,08,14.80
2008,05,17,03,09,14.80
2008,05,17,03,10,14.80
2008,05,17,03,11,14.80
2008,05,17,03,12,14.70
2008,05,17,03,13,14.70
2008,05,17,03,14,14.70
2008,05,17,03,15,14.70
2008,05,17,03,16,14.70
2008,05,17,03,17,14.70
2008,05,17,03,18,14.70
2008,05,17,03,19,14.70
2008,05,17,03,20,14.70
2008,05,17,03,21,14.70
2008,05,17,03,22,14.70
2008,05,17,03,23,14.70
2008,05,17,03,24,14.70
2008,05,17,03,25,14.70
2008,05,17,03,26,14.70
2008,05,17,03,27,14.70
2008,05,17,03,28,14.70
2008,05,17,03,29,14.70
2008,05,17,03,30,14.70
2008,05,17,03,31,14.70
2008,05,17,03,32,14.70
2008,05,17,03,33,14.70
2008,05,17,03,34,14.70
2008,05,17,03,35,14.80
2008,05,17,03,36,14.80
2008,05,17,03,37,14.80
2008,05,17,03,38,14.80
2008,05,17,03,39,14.80
2008,05,17,03,40,14.80
2008,05,17,03,41,14.80
2008,05,17,03,42,14.80
2008,05,17,03,43,14.80
2008,05,17,03,44,14.80
2008,05,17,03,45,14.80
2008,05,17,03,46,14.90
2008,05,17,03,47,14.90
2008,05,17,03,48,14.90
2008,05,17,03,49,14.90
2008,05,17,03,50,14.90
2008,05,17,03,51,14.90
2008,05,17,03,52,14.90
2008,05,17,03,53,14.80
2008,05,17,03,54,14.80
2008,05,17,03,55,14.80
2008,05,17,03,56,14.80
2008,05,17,03,57,14.80
2008,05,17,03,58,14.90
2008,05,17,03,59,14.90
2008,05,17,04,00,14.90
2008,05,17,04,01,14.90
2008,05,17,04,02,14.80
2008,05,17,04,03,14.80
2008,05,17,04,04,14.80
2008,05,17,04,05,14.80
2008,05,17,04,06,14.80
2008,05,17,04,07,14.80
2008,05,17,04,08,14.80
2008,05,17,04,09,14.80
2008,05,17,04,10,14.80
2008,05,17,04,11,14.80
2008,05,17,04,12,14.80
2008,05,17,04,13,14.80
2008,05,17,04,14,14.80
2008,05,17,04,15,14.80
2008,05,17,04,16,14.90
2008,05,17,04,17,14.90
2008,05,17,04,18,14.90
2008,05,17,04,19,14.90
2008,05,17,04,20,15.00
2008,05,17,04,21,15.00
2008,05,17,04,22,15.00
2008,05,17,04,23,15.00
2008,05,17,04,24,15.00
2008,05,17,04,25,15.00
2008,05,17,04,26,15.00
2008,05,17,04,27,14.90
2008,05,17,04,28,14.90
2008,05,17,04,29,14.90
2008,05,17,04,30,14.90
2008,05,17,04,31,14.90
2008,05,17,04,32,14.90
2008,05,17,04,33,14.90
2008,05,17,04,34,14.90
2008,05,17,04,35,14.90
2008,05,17,04,36,14.90
2008,05,17,04,37,14.90
2008,05,17,04,38,14.90
2008,05,17,04,39,14.90
2008,05,17,04,40,14.90
2008,05,17,04,41,14.90
2008,05,17,04,42,14.90
2008,05,17,04,43,14.90
2008,05,17,04,44,14.90
2008,05,17,04,45,14.90
2008,05,17,04,46,14.90
2008,05,17,04,47,14.90
2008,05,17,04,48,14.90
2008,05,17,04,49,14.90
2008,05,17,04,50,14.90
2008,05,17,04,51,14.90
2008,05,17,04,52,14.90
2008,05,17,04,53,14.90
2008,05,17,04,54,14.90
2008,05,17,04,55,14.90
2008,05,17,04,56,14.90
2008,05,17,04,57,14.90
2008,05,17,04,58,14.90
2008,05,17,04,59,14.90
2008,05,17,05,00,14.90
2008,05,17,05,01,14.90
2008,05,17,05,02,14.90
2008,05,17,05,03,14.90
2008,05,17,05,04,14.80
2008,05,17,05,05,14.80
2008,05,17,05,06,14.80
2008,05,17,05,07,14.80
2008,05,17,05,08,14.80
2008,05,17,05,09,14.80
2008,05,17,05,10,14.80
2008,05,17,05,11,14.80
2008,05,17,05,12,14.80
2008,05,17,05,13,14.80
2008,05,17,05,14,14.80
2008,05,17,05,15,14.80
2008,05,17,05,16,14.80
2008,05,17,05,17,14.80
2008,05,17,05,18,14.80
2008,05,17,05,19,14.80
2008,05,17,05,20,14.80
2008,05,17,05,21,14.80
2008,05,17,05,22,14.80
2008,05,17,05,23,14.80
2008,05,17,05,24,14.80
2008,05,17,05,25,14.80
2008,05,17,05,26,14.80
2008,05,17,05,27,14.80
2008,05,17,05,28,14.80
2008,05,17,05,29,14.80
2008,05,17,05,30,14.90
2008,05,17,05,31,14.90
2008,05,17,05,32,14.90
2008,05,17,05,33,14.90
2008,05,17,05,34,14.90
2008,05,17,05,35,14.90
2008,05,17,05,36,14.90
2008,05,17,05,37,14.90
2008,05,17,05,38,14.90
2008,05,17,05,39,14.90
2008,05,17,05,40,14.90
2008,05,17,05,41,14.90
2008,05,17,05,42,14.90
2008,05,17,05,43,14.90
2008,05,17,05,44,14.90
2008,05,17,05,45,14.90
2008,05,17,05,46,14.90
2008,05,17,05,47,14.90
2008,05,17,05,48,14.90
2008,05,17,05,49,14.90
2008,05,17,05,50,14.90
2008,05,17,05,51,14.90
2008,05,17,05,52,14.90
2008,05,17,05,53,14.90
2008,05,17,05,54,15.00
2008,05,17,05,55,15.00
2008,05,17,05,56,15.00
2008,05,17,05,57,15.00
2008,05,17,05,58,15.00
2008,05,17,05,59,15.00
2008,05,17,06,00,15.10
2008,05,17,06,01,15.10
2008,05,17,06,02,15.10
2008,05,17,06,03,15.20
2008,05,17,06,04,15.20
2008,05,17,06,05,15.20
2008,05,17,06,06,15.30
2008,05,17,06,07,15.30
2008,05,17,06,08,15.30
2008,05,17,06,09,15.30
2008,05,17,06,10,15.40
2008,05,17,06,11,15.50
2008,05,17,06,12,15.50
2008,05,17,06,13,15.50
2008,05,17,06,14,15.60
2008,05,17,06,15,15.70
2008,05,17,06,16,15.70
2008,05,17,06,17,15.80
2008,05,17,06,18,15.80
2008,05,17,06,19,15.90
2008,05,17,06,20,15.90
2008,05,17,06,21,16.00
2008,05,17,06,22,16.10
2008,05,17,06,23,16.10
2008,05,17,06,24,16.20
2008,05,17,06,25,16.20
2008,05,17,06,26,16.30
2008,05,17,06,27,16.30
2008,05,17,06,28,16.40
2008,05,17,06,29,16.40
2008,05,17,06,30,16.40
2008,05,17,06,31,16.50
2008,05,17,06,32,16.60
2008,05,17,06,33,16.60
2008,05,17,06,34,16.70
2008,05,17,06,35,16.70
2008,05,17,06,36,16.80
2008,05,17,06,37,16.80
2008,05,17,06,38,16.90
2008,05,17,06,39,16.90
2008,05,17,06,40,17.00
2008,05,17,06,41,17.10
2008,05,17,06,42,17.10
2008,05,17,06,43,17.20
2008,05,17,06,44,17.30
2008,05,17,06,45,17.30
2008,05,17,06,46,17.30
2008,05,17,06,47,17.40
2008,05,17,06,48,17.50
2008,05,17,06,49,17.50
2008,05,17,06,50,17.60
2008,05,17,06,51,17.70
2008,05,17,06,52,17.70
2008,05,17,06,53,17.70
2008,05,17,06,54,17.80
2008,05,17,06,55,17.90
2008,05,17,06,56,17.90
2008,05,17,06,57,17.90
2008,05,17,06,58,17.90
2008,05,17,06,59,18.00
2008,05,17,07,00,18.10
2008,05,17,07,01,18.10
2008,05,17,07,02,18.20
2008,05,17,07,03,18.20
2008,05,17,07,04,18.20
2008,05,17,07,05,18.30
2008,05,17,07,06,18.30
2008,05,17,07,07,18.40
2008,05,17,07,08,18.40
2008,05,17,07,09,18.50
2008,05,17,07,10,18.50
2008,05,17,07,11,18.60
2008,05,17,07,12,18.60
2008,05,17,07,13,18.70
2008,05,17,07,14,18.70
2008,05,17,07,15,18.70
2008,05,17,07,16,18.70
2008,05,17,07,17,18.70
2008,05,17,07,18,18.80
2008,05,17,07,19,18.80
2008,05,17,07,20,18.80
2008,05,17,07,21,18.90
2008,05,17,07,22,18.90
2008,05,17,07,23,18.90
2008,05,17,07,24,18.90
2008,05,17,07,25,19.10
2008,05,17,07,26,19.10
2008,05,17,07,27,19.10
2008,05,17,07,28,19.10
2008,05,17,07,29,19.10
2008,05,17,07,30,19.10
2008,05,17,07,31,19.10
2008,05,17,07,32,19.10
2008,05,17,07,33,19.10
2008,05,17,07,34,19.10
2008,05,17,07,35,19.00
2008,05,17,07,36,18.90
2008,05,17,07,37,18.80
2008,05,17,07,38,18.70
2008,05,17,07,39,18.60
2008,05,17,07,40,18.50
2008,05,17,07,41,18.40
2008,05,17,07,42,18.30
2008,05,17,07,43,18.30
2008,05,17,07,44,18.20
2008,05,17,07,45,18.10
2008,05,17,07,46,18.00
2008,05,17,07,47,17.90
2008,05,17,07,48,17.90
2008,05,17,07,49,17.90
2008,05,17,07,50,17.90
2008,05,17,07,51,17.90
2008,05,17,07,52,18.00
2008,05,17,07,53,18.10
2008,05,17,07,54,18.20
2008,05,17,07,55,18.20
2008,05,17,07,56,18.30
2008,05,17,07,57,18.30
2008,05,17,07,58,18.40
2008,05,17,07,59,18.40
2008,05,17,08,00,18.50
2008,05,17,08,01,18.50
2008,05,17,08,02,18.60
2008,05,17,08,03,18.70
2008,05,17,08,04,18.70
2008,05,17,08,05,18.80
2008,05,17,08,06,18.80
2008,05,17,08,07,18.80
2008,05,17,08,08,18.90
2008,05,17,08,09,18.90
2008,05,17,08,10,19.00
2008,05,17,08,11,19.10
2008,05,17,08,12,19.10
2008,05,17,08,13,19.10
2008,05,17,08,14,19.10
2008,05,17,08,15,19.10
2008,05,17,08,16,19.10
2008,05,17,08,17,19.10
2008,05,17,08,18,19.20
2008,05,17,08,19,19.20
2008,05,17,08,20,19.30
2008,05,17,08,21,19.30
2008,05,17,08,22,19.30
2008,05,17,08,23,19.30
2008,05,17,08,24,19.40
2008,05,17,08,25,19.40
2008,05,17,08,26,19.50
2008,05,17,08,27,19.60
2008,05,17,08,28,19.70
2008,05,17,08,29,19.70
2008,05,17,08,30,19.80
2008,05,17,08,31,19.90
2008,05,17,08,32,20.10
2008,05,17,08,33,20.20
2008,05,17,08,34,20.30
2008,05,17,08,35,20.40
2008,05,17,08,36,20.40
2008,05,17,08,37,20.50
2008,05,17,08,38,20.60
2008,05,17,08,39,20.50
2008,05,17,08,40,20.50
2008,05,17,08,41,20.50
2008,05,17,08,42,20.60
2008,05,17,08,43,20.60
2008,05,17,08,44,20.60
2008,05,17,08,45,20.60
2008,05,17,08,46,20.60
2008,05,17,08,47,20.60
2008,05,17,08,48,20.90
2008,05,17,08,49,21.00
2008,05,17,08,50,21.10
2008,05,17,08,51,21.20
2008,05,17,08,52,21.30
2008,05,17,08,53,21.30
2008,05,17,08,54,21.30
2008,05,17,08,55,21.30
2008,05,17,08,56,21.30
2008,05,17,08,57,21.30
2008,05,17,08,58,21.30
2008,05,17,08,59,21.30
2008,05,17,09,00,21.30
2008,05,17,09,01,21.30
2008,05,17,09,02,21.30
2008,05,17,09,03,21.30
2008,05,17,09,04,21.30
2008,05,17,09,05,21.30
2008,05,17,09,06,21.30
2008,05,17,09,07,21.20
2008,05,17,09,08,21.20
2008,05,17,09,09,21.30
2008,05,17,09,10,21.30
2008,05,17,09,11,21.30
2008,05,17,09,12,21.40
2008,05,17,09,13,21.60
2008,05,17,09,14,21.60
2008,05,17,09,15,21.60
2008,05,17,09,16,21.60
2008,05,17,09,17,21.70
2008,05,17,09,18,21.70
2008,05,17,09,19,21.80
2008,05,17,09,20,21.80
2008,05,17,09,21,21.80
2008,05,17,09,22,21.80
2008,05,17,09,23,21.90
2008,05,17,09,24,22.00
2008,05,17,09,25,22.00
2008,05,17,09,26,22.00
2008,05,17,09,27,22.00
2008,05,17,09,28,22.00
2008,05,17,09,29,21.90
2008,05,17,09,30,21.70
2008,05,17,09,31,21.60
2008,05,17,09,32,21.40
2008,05,17,09,33,21.30
2008,05,17,09,34,21.10
2008,05,17,09,35,21.10
2008,05,17,09,36,21.00
2008,05,17,09,37,21.00
2008,05,17,09,38,21.00
2008,05,17,09,39,20.90
2008,05,17,09,40,20.90
2008,05,17,09,41,20.90
2008,05,17,09,42,20.90
2008,05,17,09,43,20.90
2008,05,17,09,44,20.90
2008,05,17,09,45,20.90
2008,05,17,09,46,21.00
2008,05,17,09,47,21.20
2008,05,17,09,48,21.30
2008,05,17,09,49,21.30
2008,05,17,09,50,21.40
2008,05,17,09,51,21.50
2008,05,17,09,52,21.60
2008,05,17,09,53,21.50
2008,05,17,09,54,21.30
2008,05,17,09,55,21.30
2008,05,17,09,56,21.30
2008,05,17,09,57,21.40
2008,05,17,09,58,21.50
2008,05,17,09,59,21.60
2008,05,17,10,00,21.70
2008,05,17,10,01,21.80
2008,05,17,10,02,21.90
2008,05,17,10,03,21.90
2008,05,17,10,04,21.90
2008,05,17,10,05,21.80
2008,05,17,10,06,21.80
2008,05,17,10,07,21.80
2008,05,17,10,08,21.80
2008,05,17,10,09,21.70
2008,05,17,10,10,21.70
2008,05,17,10,11,21.60
2008,05,17,10,12,21.50
2008,05,17,10,13,21.40
2008,05,17,10,14,21.40
2008,05,17,10,15,21.60
2008,05,17,10,16,21.60
2008,05,17,10,17,21.60
2008,05,17,10,18,21.60
2008,05,17,10,19,21.60
2008,05,17,10,20,21.70
2008,05,17,10,21,21.70
2008,05,17,10,22,21.80
2008,05,17,10,23,21.80
2008,05,17,10,24,21.80
2008,05,17,10,25,21.70
2008,05,17,10,26,21.70
2008,05,17,10,27,21.70
2008,05,17,10,28,21.70
2008,05,17,10,29,21.70
2008,05,17,10,30,21.70
2008,05,17,10,31,21.80
2008,05,17,10,32,21.90
2008,05,17,10,33,21.80
2008,05,17,10,34,21.70
2008,05,17,10,35,21.70
2008,05,17,10,36,21.70
2008,05,17,10,37,21.70
2008,05,17,10,38,21.70
2008,05,17,10,39,21.70
2008,05,17,10,40,21.70
2008,05,17,10,41,21.80
2008,05,17,10,42,21.90
2008,05,17,10,43,21.90
2008,05,17,10,44,22.00
2008,05,17,10,45,22.00
2008,05,17,10,46,22.00
2008,05,17,10,47,22.00
2008,05,17,10,48,22.00
2008,05,17,10,49,22.10
2008,05,17,10,50,22.10
2008,05,17,10,51,22.00
2008,05,17,10,52,21.80
2008,05,17,10,53,21.60
2008,05,17,10,54,21.60
2008,05,17,10,55,21.60
2008,05,17,10,56,21.70
2008,05,17,10,57,21.80
2008,05,17,10,58,21.80
2008,05,17,10,59,21.90
2008,05,17,11,00,21.90
2008,05,17,11,01,22.00
2008,05,17,11,02,22.10
2008,05,17,11,03,22.10
2008,05,17,11,04,22.20
2008,05,17,11,05,22.10
2008,05,17,11,06,22.10
2008,05,17,11,07,22.00
2008,05,17,11,08,22.00
2008,05,17,11,09,22.00
2008,05,17,11,10,22.00
2008,05,17,11,11,22.00
2008,05,17,11,12,22.10
2008,05,17,11,13,22.20
2008,05,17,11,14,22.30
2008,05,17,11,15,22.40
2008,05,17,11,16,22.40
2008,05,17,11,17,22.50
2008,05,17,11,18,22.50
2008,05,17,11,19,22.40
2008,05,17,11,20,22.40
2008,05,17,11,21,22.30
2008,05,17,11,22,22.30
2008,05,17,11,23,22.30
2008,05,17,11,24,22.10
2008,05,17,11,25,22.10
2008,05,17,11,26,22.20
2008,05,17,11,27,22.10
2008,05,17,11,28,22.20
2008,05,17,11,29,22.20
2008,05,17,11,30,22.20
2008,05,17,11,31,22.20
2008,05,17,11,32,22.10
2008,05,17,11,33,22.10
2008,05,17,11,34,22.10
2008,05,17,11,35,22.10
2008,05,17,11,36,22.20
2008,05,17,11,37,22.30
2008,05,17,11,38,22.40
2008,05,17,11,39,22.50
2008,05,17,11,40,22.50
2008,05,17,11,41,22.50
2008,05,17,11,42,22.50
2008,05,17,11,43,22.40
2008,05,17,11,44,22.20
2008,05,17,11,45,22.20
2008,05,17,11,46,22.10
2008,05,17,11,47,22.00
2008,05,17,11,48,22.10
2008,05,17,11,49,22.10
2008,05,17,11,50,22.20
2008,05,17,11,51,22.30
2008,05,17,11,52,22.40
2008,05,17,11,53,22.50
2008,05,17,11,54,22.50
2008,05,17,11,55,22.50
2008,05,17,11,56,22.50
2008,05,17,11,57,22.60
2008,05,17,11,58,22.70
2008,05,17,11,59,22.80
2008,05,17,12,00,22.80
2008,05,17,12,01,22.90
2008,05,17,12,02,22.90
2008,05,17,12,03,22.90
2008,05,17,12,04,22.90
2008,05,17,12,05,22.90
2008,05,17,12,06,22.80
2008,05,17,12,07,22.80
2008,05,17,12,08,22.80
2008,05,17,12,09,22.80
2008,05,17,12,10,22.80
2008,05,17,12,11,22.70
2008,05,17,12,12,22.70
2008,05,17,12,13,22.60
2008,05,17,12,14,22.60
2008,05,17,12,15,22.60
2008,05,17,12,16,22.60
2008,05,17,12,17,22.70
2008,05,17,12,18,22.70
2008,05,17,12,19,22.80
2008,05,17,12,20,22.70
2008,05,17,12,21,22.70
2008,05,17,12,22,22.70
2008,05,17,12,23,22.80
2008,05,17,12,24,22.80
2008,05,17,12,25,22.80
2008,05,17,12,26,22.70
2008,05,17,12,27,22.70
2008,05,17,12,28,22.70
2008,05,17,12,29,22.80
2008,05,17,12,30,22.80
2008,05,17,12,31,22.80
2008,05,17,12,32,22.80
2008,05,17,12,33,22.80
2008,05,17,12,34,22.80
2008,05,17,12,35,22.90
2008,05,17,12,36,22.90
2008,05,17,12,37,22.90
2008,05,17,12,38,23.10
2008,05,17,12,39,23.10
2008,05,17,12,40,23.10
2008,05,17,12,41,23.10
2008,05,17,12,42,23.20
2008,05,17,12,43,23.30
2008,05,17,12,44,23.40
2008,05,17,12,45,23.50
2008,05,17,12,46,23.60
2008,05,17,12,47,23.70
2008,05,17,12,48,23.80
2008,05,17,12,49,23.90
2008,05,17,12,50,23.90
2008,05,17,12,51,23.90
2008,05,17,12,52,23.90
2008,05,17,12,53,23.80
2008,05,17,12,54,23.80
2008,05,17,12,55,23.80
2008,05,17,12,56,23.80
2008,05,17,12,57,23.80
2008,05,17,12,58,23.90
2008,05,17,12,59,24.00
2008,05,17,13,00,24.10
2008,05,17,13,01,24.10
2008,05,17,13,02,24.10
2008,05,17,13,03,24.10
2008,05,17,13,04,24.10
2008,05,17,13,05,24.10
2008,05,17,13,06,24.00
2008,05,17,13,07,23.90
2008,05,17,13,08,23.70
2008,05,17,13,09,23.70
2008,05,17,13,10,23.70
2008,05,17,13,11,23.60
2008,05,17,13,12,23.60
2008,05,17,13,13,23.50
2008,05,17,13,14,23.40
2008,05,17,13,15,23.50
2008,05,17,13,16,23.60
2008,05,17,13,17,23.60
2008,05,17,13,18,23.60
2008,05,17,13,19,23.60
2008,05,17,13,20,23.60
2008,05,17,13,21,23.60
2008,05,17,13,22,23.70
2008,05,17,13,23,23.70
2008,05,17,13,24,23.60
2008,05,17,13,25,23.50
2008,05,17,13,26,23.40
2008,05,17,13,27,23.40
2008,05,17,13,28,23.50
2008,05,17,13,29,23.60
2008,05,17,13,30,23.70
2008,05,17,13,31,23.70
2008,05,17,13,32,23.70
2008,05,17,13,33,23.70
2008,05,17,13,34,23.70
2008,05,17,13,35,23.70
2008,05,17,13,36,23.60
2008,05,17,13,37,23.60
2008,05,17,13,38,23.60
2008,05,17,13,39,23.60
2008,05,17,13,40,23.60
2008,05,17,13,41,23.60
2008,05,17,13,42,23.60
2008,05,17,13,43,23.60
2008,05,17,13,44,23.60
2008,05,17,13,45,23.70
2008,05,17,13,46,23.70
2008,05,17,13,47,23.70
2008,05,17,13,48,23.80
2008,05,17,13,49,23.90
2008,05,17,13,50,23.90
2008,05,17,13,51,23.90
2008,05,17,13,52,24.10
2008,05,17,13,53,24.10
2008,05,17,13,54,24.10
2008,05,17,13,55,24.20
2008,05,17,13,56,24.10
2008,05,17,13,57,24.10
2008,05,17,13,58,24.10
2008,05,17,13,59,24.10
2008,05,17,14,00,24.10
2008,05,17,14,01,24.10
2008,05,17,14,02,24.20
2008,05,17,14,03,24.30
2008,05,17,14,04,24.40
2008,05,17,14,05,24.30
2008,05,17,14,06,24.20
2008,05,17,14,07,24.00
2008,05,17,14,08,23.90
2008,05,17,14,09,23.90
2008,05,17,14,10,24.10
2008,05,17,14,11,24.30
2008,05,17,14,12,24.50
2008,05,17,14,13,24.70
2008,05,17,14,14,24.90
2008,05,17,14,15,24.90
2008,05,17,14,16,24.80
2008,05,17,14,17,24.80
2008,05,17,14,18,24.70
2008,05,17,14,19,24.70
2008,05,17,14,20,24.80
2008,05,17,14,21,24.80
2008,05,17,14,22,24.70
2008,05,17,14,23,24.80
2008,05,17,14,24,24.70
2008,05,17,14,25,24.60
2008,05,17,14,26,24.50
2008,05,17,14,27,24.50
2008,05,17,14,28,24.60
2008,05,17,14,29,24.70
2008,05,17,14,30,24.70
2008,05,17,14,31,24.90
2008,05,17,14,32,25.20
2008,05,17,14,33,25.20
2008,05,17,14,34,25.20
2008,05,17,14,35,25.20
2008,05,17,14,36,25.30
2008,05,17,14,37,25.30
2008,05,17,14,38,25.40
2008,05,17,14,39,25.50
2008,05,17,14,40,25.60
2008,05,17,14,41,25.60
2008,05,17,14,42,25.60
2008,05,17,14,43,25.60
2008,05,17,14,44,25.60
2008,05,17,14,45,25.40
2008,05,17,14,46,25.20
2008,05,17,14,47,25.10
2008,05,17,14,48,25.10
2008,05,17,14,49,25.10
2008,05,17,14,50,25.20
2008,05,17,14,51,25.30
2008,05,17,14,52,25.40
2008,05,17,14,53,25.50
2008,05,17,14,54,25.40
2008,05,17,14,55,25.10
2008,05,17,14,56,24.90
2008,05,17,14,57,24.60
2008,05,17,14,58,24.30
2008,05,17,14,59,24.00
2008,05,17,15,00,23.80
2008,05,17,15,01,23.70
2008,05,17,15,02,23.60
2008,05,17,15,03,23.50
2008,05,17,15,04,23.40
2008,05,17,15,05,23.30
2008,05,17,15,06,23.30
2008,05,17,15,07,23.10
2008,05,17,15,08,23.00
2008,05,17,15,09,22.90
2008,05,17,15,10,22.80
2008,05,17,15,11,22.60
2008,05,17,15,12,22.50
2008,05,17,15,13,22.20
2008,05,17,15,14,22.00
2008,05,17,15,15,21.90
2008,05,17,15,16,21.80
2008,05,17,15,17,21.70
2008,05,17,15,18,21.60
2008,05,17,15,19,21.50
2008,05,17,15,20,21.40
2008,05,17,15,21,21.40
2008,05,17,15,22,21.40
2008,05,17,15,23,21.40
2008,05,17,15,24,21.40
2008,05,17,15,25,21.40
2008,05,17,15,26,21.40
2008,05,17,15,27,21.50
2008,05,17,15,28,21.60
2008,05,17,15,29,21.60
2008,05,17,15,30,21.60
2008,05,17,15,31,21.50
2008,05,17,15,32,21.50
2008,05,17,15,33,21.40
2008,05,17,15,34,21.40
2008,05,17,15,35,21.40
2008,05,17,15,36,21.60
2008,05,17,15,37,21.60
2008,05,17,15,38,21.60
2008,05,17,15,39,21.60
2008,05,17,15,40,21.60
2008,05,17,15,41,21.60
2008,05,17,15,42,21.70
2008,05,17,15,43,21.80
2008,05,17,15,44,21.80
2008,05,17,15,45,21.90
2008,05,17,15,46,22.00
2008,05,17,15,47,22.00
2008,05,17,15,48,22.00
2008,05,17,15,49,22.20
2008,05,17,15,50,22.30
2008,05,17,15,51,22.40
2008,05,17,15,52,22.50
2008,05,17,15,53,22.40
2008,05,17,15,54,22.50
2008,05,17,15,55,22.60
2008,05,17,15,56,22.80
2008,05,17,15,57,22.90
2008,05,17,15,58,22.90
2008,05,17,15,59,23.10
2008,05,17,16,00,22.90
2008,05,17,16,01,22.90
2008,05,17,16,02,22.80
2008,05,17,16,03,22.80
2008,05,17,16,04,22.90
2008,05,17,16,05,23.00
2008,05,17,16,06,23.10
2008,05,17,16,07,23.20
2008,05,17,16,08,23.20
2008,05,17,16,09,23.20
2008,05,17,16,10,23.20
2008,05,17,16,11,23.30
2008,05,17,16,12,23.40
2008,05,17,16,13,23.40
2008,05,17,16,14,23.40
2008,05,17,16,15,23.40
2008,05,17,16,16,23.50
2008,05,17,16,17,23.40
2008,05,17,16,18,23.10
2008,05,17,16,19,22.90
2008,05,17,16,20,22.40
2008,05,17,16,21,22.10
2008,05,17,16,22,21.90
2008,05,17,16,23,21.70
2008,05,17,16,24,21.60
2008,05,17,16,25,21.50
2008,05,17,16,26,21.50
2008,05,17,16,27,21.50
2008,05,17,16,28,21.40
2008,05,17,16,29,21.40
2008,05,17,16,30,21.40
2008,05,17,16,31,21.40
2008,05,17,16,32,21.40
2008,05,17,16,33,21.30
2008,05,17,16,34,21.50
2008,05,17,16,35,21.60
2008,05,17,16,36,21.60
2008,05,17,16,37,21.60
2008,05,17,16,38,21.70
2008,05,17,16,39,21.70
2008,05,17,16,40,21.90
2008,05,17,16,41,21.90
2008,05,17,16,42,21.80
2008,05,17,16,43,21.70
2008,05,17,16,44,21.70
2008,05,17,16,45,21.70
2008,05,17,16,46,21.80
2008,05,17,16,47,21.80
2008,05,17,16,48,21.80
2008,05,17,16,49,21.60
2008,05,17,16,50,21.60
2008,05,17,16,51,21.60
2008,05,17,16,52,21.60
2008,05,17,16,53,21.50
2008,05,17,16,54,21.30
2008,05,17,16,55,21.30
2008,05,17,16,56,21.30
2008,05,17,16,57,21.30
2008,05,17,16,58,21.30
2008,05,17,16,59,21.30
2008,05,17,17,00,21.30
2008,05,17,17,01,21.30
2008,05,17,17,02,21.30
2008,05,17,17,03,21.30
2008,05,17,17,04,21.40
2008,05,17,17,05,21.30
2008,05,17,17,06,21.30
2008,05,17,17,07,21.30
2008,05,17,17,08,21.40
2008,05,17,17,09,21.60
2008,05,17,17,10,21.60
2008,05,17,17,11,21.60
2008,05,17,17,12,21.60
2008,05,17,17,13,21.60
2008,05,17,17,14,21.60
2008,05,17,17,15,21.60
2008,05,17,17,16,21.70
2008,05,17,17,17,21.80
2008,05,17,17,18,22.00
2008,05,17,17,19,22.20